Regional Weather Roundup
Issued by NWS

Home | Current Version | Previous Version | Text Only | Print | Product List | Glossary Off
Versions: 1 2 3 4 5 6 7 8 9 10 11 12 13 14 15 16 17 18 19 20 21 22 23 24 25 26 27 28 29 30 31 32 33 34 35 36 37 38 39 40 41 42 43 44 45 46 47

000
ASUS45 KBOU 250410
RWRCO

WEATHER ROUNDUP FOR COLORADO
NATIONAL WEATHER SERVICE PUEBLO CO
1000 PM MDT TUE APR 24 2018

NOTE: "FAIR" INDICATES FEW OR NO CLOUDS BELOW 12000 FEET WITH NO
SIGNIFICANT WEATHER AND/OR OBSTRUCTIONS TO VISIBILITY.

COZ001>005-013-030-031-250500-
...NORTHWEST COLORADO...

CITY           SKY/WX    TMP DP  RH WIND       PRES   REMARKS
CRAIG          CLEAR     37  21  52 SW6       30.39R
HAYDEN         CLEAR     34  21  59 SW10      30.39R WCI  26
MEEKER         CLEAR     38  21  50 N10       30.40R
RABBIT EARS PA NOT AVBL
STEAMBOAT SPGS FAIR      37  22  54 W3        30.37R
WALDEN         FAIR      25  18  74 NW5       30.42R WCI  19
$$

COZ006>008-011-250500-
...WEST CENTRAL VALLEYS...

CITY           SKY/WX    TMP DP  RH WIND       PRES   REMARKS
GRAND JUNCTION CLEAR     53  19  26 NE17G24   30.29R
MONTROSE       CLEAR     48  14  25 NW10      30.30R
EAGLE          CLEAR     44  17  33 N3        30.35R
RIFLE          CLEAR     47  21  35 N7        30.36R
DELTA          NOT AVBL
NUCLA          NOT AVBL
$$

COZ017>023-064>068-250500-
...SOUTHWEST COLORADO...

CITY           SKY/WX    TMP DP  RH WIND       PRES   REMARKS
DURANGO        PTCLDY    54  26  34 VRB3      30.15R
CORTEZ         CLEAR     58  18  21 NE10      30.17R
PAGOSA SPRINGS FAIR      46  24  42 SW3       30.21R
TELLURIDE      PTCLDY    41  20  43 W3        30.37R
WOLF CREEK PAS PTCLDY    34  19  55 NW5       30.45R WCI  30
$$

COZ009-010-012-014-032>034-037-058>063-250500-
...CENTRAL COLORADO...

CITY           SKY/WX    TMP DP  RH WIND       PRES   REMARKS
ASPEN          PTCLDY    37  18  46 NW5       30.32R
BUENA VISTA    CLOUDY    31  29  93 SE7       30.40S WCI  24
COPPER MTN     NOT AVBL
BERTHOUD PASS  CLOUDY    16   5  62 NW12G22   30.38R WCI   3
COTTONWOOD PAS CLOUDY    32  30  93 E6        30.39R WCI  26
GUNNISON       CLEAR     43  17  35 SW5       30.30R
KREMMLING      PTCLDY    37  25  60 NW5       30.39R
LEADVILLE      CLOUDY    24  24 100 S9        30.36R FOG     WCI  14
MONARCH PASS   FOG       19  18  93 N3        30.50R VSB<1/4
SALIDA         CLOUDY    32  30  92 E9        30.48R WCI  24
SUNLIGHT       CLEAR     23  16  74 W12       30.45R WCI  12
WILKERSON PASS CLOUDY   N/A N/A N/A CALM      30.42R
$$

COZ069>075-250500-
...SAN LUIS VALLEY/SANGRE DE CRISTO MOUNTAINS...

CITY           SKY/WX    TMP DP  RH WIND       PRES   REMARKS
ALAMOSA        MOCLDY    37  27  67 SW7       30.25R
DEL NORTE      FAIR      41  28  59 E6        30.26R
LA VETA PASS   LGT SNOW  21  19  93 MISG      30.48R VSB 1
SAGUACHE       NOT AVBL
$$

COZ035-036-038>040-250500-
...NORTHERN COLORADO FRONT RANGE...

CITY           SKY/WX    TMP DP  RH WIND       PRES   REMARKS
DENVER INTL AP CLOUDY    37  30  75 N6        30.44R
DMNS CITY PARK NOT AVBL
AURORA         NOT AVBL
FRONT RANGE AP CLOUDY    38  32  77 N7        30.45S
ERIE MUNI ARPT CLOUDY    38  34  87 CALM      30.50R
BOULDER MUN AP CLOUDY    37  34  87 SW5       30.44R
CENTENNIAL     DRIZZLE   33  33 100 W7        30.44R FOG     WCI  27
BROOMFIELD     MOCLDY    36  34  93 W3        30.45R
LOVELAND       CLOUDY    39  28  64 SE7       30.46R
LONGMONT       CLOUDY    40  35  82 S3        30.47R
$$

COZ041-046-047-076>085-087-088-250500-
...PIKES PEAK/PALMER DIVIDE AND SOUTHERN FOOTHILLS...

CITY           SKY/WX    TMP DP  RH WIND       PRES   REMARKS
COLO. SPRINGS  CLOUDY    33  31  92 N7        30.43S WCI  27
A. F. ACADEMY  NOT AVBL
SCHRIEVER AFB  NOT AVBL
CHEYENNE MTN   NOT AVBL
ELLICOTT       LGT SNOW N/A N/A N/A CALM      30.42R
FALCON         CLOUDY    32  30  94 N5        30.44R WCI  27
FORT CARSON    NOT AVBL
LIMON          CLOUDY    34  31  88 N6        30.42R WCI  29
MONUMENT HILL  CLOUDY    30  28  93 NW8       30.43R WCI  23
CANON CITY     LGT SNOW  34  34 100 NE5       30.44S WCI  30
WALSENBURG     CLOUDY    34  34 100 NW3       30.45R
TRINIDAD       CLOUDY    34  32  92 NE10      30.44R WCI  26
$$

COZ042>045-048>051-090-091-250500-
...NORTHEAST COLORADO...

CITY           SKY/WX    TMP DP  RH WIND       PRES   REMARKS
GREELEY ARPT   CLOUDY    38  28  67 CALM      30.46R
AKRON          CLOUDY    36  31  82 N9        30.43R
BURLINGTON     CLOUDY    37  33  85 N10       30.41R
WRAY           CLOUDY    37  32  81 N8        30.43R
YUMA           NOT AVBL
STERLING       NOT AVBL
HOLYOKE        FAIR      37  32  81 N12       30.43S
FORT MORGAN    MOCLDY    34  25  71 N6        30.45R WCI  28
$$

COZ086-089-092>099-250500-
...SOUTHEAST COLORADO...

CITY           SKY/WX    TMP DP  RH WIND       PRES   REMARKS
PUEBLO         LGT RAIN  38  36  92 W5        30.46R
LA JUNTA       LGT RAIN  39  36  89 NW8       30.43R
LAMAR          CLOUDY    38  35  89 W7        30.40R
SPRINGFIELD      N/A     35  33  92 N16G26    30.40R WCI  25
$$





USA.gov is the U.S. government's official web portal to all federal, state and local government web resources and services.